This is the latest recevied weather packets stored in our database for station/object KC5DAQ-28. If no packets are shown the sender has not sent any weather packets the latest 10 day(s).
| Time | Temp. | Humidity | Pressure | Rain* | Wind** | Luminosity | Snow |
|---|---|---|---|---|---|---|---|
| 1778258465 | 21.67° C | 84% | 1006.6 hPa | 0 mm | - | 250 W/m² | - |
| 1778258404 | 21.67° C | 84% | 1006.7 hPa | 0 mm | - | 259 W/m² | - |
| 1778258343 | 21.67° C | 84% | 1006.6 hPa | 0 mm | - | 260 W/m² | - |
| 1778258283 | 21.67° C | 84% | 1006.7 hPa | 0 mm | - | 260 W/m² | - |
| 1778258225 | 21.67° C | 84% | 1006.7 hPa | 0 mm | - | 295 W/m² | - |
| 1778258163 | 21.67° C | 84% | 1006.7 hPa | 0 mm | - | 295 W/m² | - |
| 1778258105 | 21.67° C | 84% | 1006.7 hPa | 0 mm | - | 295 W/m² | - |
| 1778258043 | 21.67° C | 83% | 1006.7 hPa | 0 mm | - | 241 W/m² | - |
| 1778257983 | 21.67° C | 83% | 1006.6 hPa | 0 mm | - | 241 W/m² | - |
| 1778257923 | 21.67° C | 83% | 1006.8 hPa | 0 mm | - | 241 W/m² | - |
| 1778257864 | 21.67° C | 83% | 1006.8 hPa | 0 mm | - | 199 W/m² | - |
| 1778257804 | 21.67° C | 83% | 1006.8 hPa | 0 mm | - | 149 W/m² | - |
| 1778257745 | 21.67° C | 83% | 1006.8 hPa | 0 mm | - | 151 W/m² | - |
| 1778257683 | 21.67° C | 83% | 1006.8 hPa | 0 mm | - | 157 W/m² | - |
| 1778257624 | 21.67° C | 83% | 1006.9 hPa | 0 mm | - | 169 W/m² | - |
| 1778257564 | 21.67° C | 83% | 1006.8 hPa | 0 mm | - | 267 W/m² | - |
| 1778257505 | 21.67° C | 83% | 1006.7 hPa | 0 mm | - | 267 W/m² | - |
| 1778257444 | 21.67° C | 83% | 1006.7 hPa | 0 mm | - | 368 W/m² | - |
| 1778257383 | 21.67° C | 83% | 1006.7 hPa | 0 mm | - | 368 W/m² | - |
| 1778257323 | 21.67° C | 83% | 1006.5 hPa | 0 mm | - | 200 W/m² | - |
| 1778257263 | 21.67° C | 83% | 1006.6 hPa | 0 mm | - | 200 W/m² | - |
| 1778257203 | 21.67° C | 83% | 1006.6 hPa | 0 mm | - | 200 W/m² | - |
| 1778257143 | 21.67° C | 83% | 1006.6 hPa | 0 mm | - | 280 W/m² | - |
| 1778257083 | 21.67° C | 83% | 1006.7 hPa | 0 mm | - | 280 W/m² | - |
| 1778257024 | 21.67° C | 84% | 1006.6 hPa | 0 mm | - | 280 W/m² | - |
* Rain latest hour (hover to see other rain measurements)
** Current wind speed in m/s (hover to see current wind gust speed)